Theta_e
336 338 339 339 340 340 342 340 340 341 342 342 340 338 335 332 328 326 325 328 327 330 330 327 338 337 339 340 340 341 341 341 340 339 339 338 339 336 337 337 337 337 337 336 335 335 336 335 335 334 334 333 332 332 332 332 332 332 332 332 333 333 333 333 334 335 336 337 338 340 342 344 345 349
343 341 339 338 337 340 340 339 339 342 342 340 340 340 340 340 332 330 326 327 330 330 333 330 331 340 339 339 339 338 339 342 339 338 339 338 340 335 334 337 337 336 335 334 333 334 334 334 335 334 333 333 333 333 332 332 332 332 332 332 333 333 333 333 333 334 335 335 337 338 340 341 343 344
342 341 339 340 339 340 339 340 339 340 340 339 338 338 339 338 339 336 331 325 331 333 330 332 334 334 338 336 337 338 339 340 338 338 339 339 339 339 340 336 335 334 333 332 332 331 331 331 332 331 331 331 332 332 331 331 332 331 331 332 332 333 333 333 333 334 334 335 335 336 337 339 340 341
340 339 338 340 340 340 339 340 339 339 340 339 338 338 337 338 338 339 336 330 328 334 331 332 334 334 337 339 337 338 338 339 344 339 339 341 342 340 340 339 336 334 332 332 331 330 330 330 331 330 330 330 332 331 331 330 331 331 331 332 332 332 332 332 333 333 333 333 334 334 335 336 337 339
339 340 339 340 341 342 340 339 338 337 338 339 337 337 337 335 337 335 333 329 329 333 336 334 332 334 336 335 338 337 337 337 337 339 339 340 339 340 339 339 337 335 332 331 331 331 330 330 329 329 330 330 331 332 332 331 330 329 329 329 329 330 330 330 330 331 332 332 332 333 333 334 335 336
339 340 340 340 340 341 340 338 338 337 335 335 334 334 334 334 335 337 333 330 329 328 333 332 335 334 334 331 338 336 335 336 338 337 338 339 339 339 339 338 338 336 333 331 329 330 329 329 329 328 328 328 329 329 329 329 327 328 327 327 327 327 326 326 327 329 330 331 331 332 332 333 333 334
340 339 340 339 339 339 338 338 338 337 337 336 336 336 337 336 335 337 336 332 329 329 330 334 332 333 334 334 334 337 336 338 337 337 337 336 336 337 337 337 336 335 333 331 329 328 328 329 328 327 328 327 327 326 326 325 325 324 324 324 325 325 325 325 325 327 327 329 330 331 331 331 332 333
339 339 339 338 338 339 337 337 337 337 337 337 338 337 338 338 337 338 338 337 334 332 330 334 334 334 334 335 336 336 336 335 336 336 337 337 335 335 335 335 334 333 331 330 329 328 327 327 326 325 325 325 324 323 322 322 322 322 321 321 322 322 322 322 322 324 324 325 326 328 330 331 331 330
340 340 339 338 339 338 336 336 335 336 336 336 336 336 337 337 336 336 336 336 335 333 331 332 335 336 336 336 335 335 332 333 334 335 335 335 335 336 336 335 334 333 330 329 329 327 327 326 326 325 325 325 323 322 321 321 321 320 320 320 320 321 321 321 320 321 321 322 322 322 324 326 328 329
340 340 340 339 339 338 336 335 335 337 335 335 335 335 337 337 338 338 338 338 336 335 334 335 335 337 335 334 333 333 333 330 330 331 333 335 335 334 332 332 333 334 334 333 334 332 331 329 326 325 326 325 323 323 322 321 320 319 318 316 316 318 319 319 320 320 320 320 321 322 323 324 325 326
340 339 339 339 339 338 337 336 335 335 335 335 336 337 337 338 338 336 335 335 333 332 332 333 333 332 333 331 328 332 333 333 331 329 331 331 331 334 332 331 333 333 333 334 332 331 330 330 330 325 323 324 323 323 322 321 319 319 317 316 315 315 315 316 317 318 318 319 319 319 318 319 323 325
338 338 338 336 337 337 338 337 337 336 335 337 336 340 341 340 337 334 334 333 331 331 330 329 329 330 330 331 332 331 331 329 330 330 328 325 326 329 333 334 332 333 333 332 332 331 330 330 329 325 324 324 324 322 323 324 324 322 319 318 318 318 316 315 316 316 316 316 315 315 316 316 319 320
340 339 338 337 337 340 342 343 343 341 343 342 339 337 336 336 336 335 335 333 332 330 329 328 330 327 327 328 329 327 327 326 325 328 329 327 327 328 328 331 333 332 330 331 330 331 331 330 330 330 331 331 331 331 328 329 329 325 320 319 320 320 319 317 316 316 316 316 315 315 315 316 317 319
339 339 338 339 342 345 341 345 345 341 339 339 338 339 337 336 337 336 334 332 331 330 327 326 326 324 324 324 327 326 327 329 329 327 328 325 328 329 327 329 331 332 330 329 330 331 333 330 330 330 329 329 333 330 329 329 327 326 323 322 321 321 320 318 317 317 316 316 315 315 314 315 316 317
340 340 340 341 339 345 341 343 343 342 339 337 334 332 332 334 337 333 331 330 330 328 327 326 326 325 325 326 327 326 326 327 327 326 328 328 327 325 323 321 327 333 332 331 328 328 332 331 327 328 328 328 328 327 328 328 327 324 323 322 322 321 320 320 320 318 317 316 315 315 314 315 315 316
340 339 338 338 343 343 346 345 344 342 337 333 332 332 331 330 329 328 331 329 328 328 327 326 326 327 326 327 328 327 326 326 327 329 327 327 325 324 323 323 323 330 332 328 325 324 328 328 326 326 327 326 327 326 325 324 324 323 321 321 321 321 321 320 321 321 320 319 318 318 318 317 317 317
339 341 346 346 343 345 341 341 343 343 343 339 332 331 331 330 327 325 323 324 332 333 329 327 326 327 327 327 329 332 330 330 327 327 325 326 325 325 323 323 324 327 331 326 322 320 323 325 323 322 326 326 327 326 324 323 322 322 321 320 321 320 320 320 320 320 320 319 318 318 318 317 317 317
339 345 340 342 344 344 343 342 342 341 342 342 342 340 337 336 335 328 323 322 322 326 330 331 328 330 332 330 332 331 331 328 326 324 323 324 323 323 323 326 325 326 327 322 320 319 321 324 323 321 322 324 327 328 325 321 320 320 320 320 319 318 318 318 318 318 318 318 317 317 316 315 315 315
339 341 340 343 345 343 341 342 342 342 342 341 336 334 332 331 334 335 332 333 333 333 331 332 332 331 330 330 330 330 328 326 325 326 325 325 324 324 324 323 324 324 326 326 322 318 322 321 319 320 321 322 323 324 321 319 319 319 318 318 318 318 317 317 318 317 317 317 316 316 315 314 314 313
344 346 341 340 341 342 342 342 336 339 340 340 335 333 332 332 332 332 334 329 329 332 330 329 329 328 327 323 329 328 325 325 326 325 325 324 323 320 318 317 318 319 322 325 322 318 316 321 317 318 320 321 321 322 322 320 319 319 319 319 318 317 316 316 316 316 317 317 316 316 314 312 311 311
347 345 344 344 342 340 340 336 327 328 333 336 335 332 331 330 330 330 332 326 321 323 320 318 317 316 315 315 314 312 312 321 323 324 322 320 318 316 314 315 315 315 318 320 321 318 315 319 318 317 319 320 319 319 321 323 321 320 318 317 317 316 316 316 315 315 316 316 316 316 315 313 312 312
345 343 342 342 340 340 340 323 320 322 331 333 333 330 328 327 328 328 329 329 330 320 317 317 316 316 317 317 315 314 313 313 315 324 320 321 319 316 316 314 315 315 317 318 320 318 315 318 319 316 318 318 319 318 321 325 325 323 320 318 317 316 316 315 315 315 316 316 316 315 314 312 312 318
343 344 341 338 338 337 335 315 317 318 328 332 331 329 327 326 326 328 329 328 328 329 328 330 332 332 324 330 331 331 321 318 319 325 325 324 322 318 317 315 313 312 314 319 323 316 315 315 315 315 312 311 316 322 323 324 325 326 325 324 324 319 318 317 315 314 314 314 315 315 313 312 312 320
341 338 337 336 326 322 315 312 311 313 315 329 329 328 326 325 325 330 330 329 327 327 325 325 325 325 325 324 325 324 324 325 331 329 327 327 325 320 314 314 313 311 312 318 318 314 312 312 310 315 315 314 313 318 321 322 323 323 323 323 322 322 322 320 318 316 313 314 313 313 313 311 312 321
333 333 334 336 325 314 311 308 307 307 309 315 326 327 327 327 321 319 327 327 326 326 325 325 324 324 323 322 322 322 322 321 321 321 321 320 319 317 315 313 311 311 312 315 316 315 311 313 313 316 317 319 318 317 319 321 322 322 323 323 322 324 325 325 324 327 321 314 311 311 311 311 310 317
334 335 338 339 321 311 309 307 303 304 307 310 320 326 305 305 311 324 325 325 325 323 322 321 320 320 319 319 319 319 319 319 321 320 319 319 318 317 315 312 310 308 309 317 316 318 315 315 318 317 318 317 318 320 318 319 321 322 323 323 323 324 325 325 326 328 331 332 332 319 317 311 312 311
334 334 334 333 311 308 304 302 302 302 304 308 317 309 306 308 308 318 323 323 323 322 320 320 319 319 318 318 317 318 318 318 320 318 319 318 316 316 315 317 317 316 317 320 321 321 320 318 322 318 318 320 318 319 317 315 317 321 322 323 323 324 327 327 328 329 331 332 333 319 312 311 311 312
334 336 336 322 305 301 297 299 302 305 306 316 302 303 306 309 315 321 322 320 321 321 319 319 319 318 317 318 317 317 318 317 320 319 318 317 317 318 318 319 318 319 319 320 321 322 322 322 322 322 321 321 320 317 315 318 320 319 318 321 323 325 329 329 332 332 331 333 333 334 325 321 318 316
324 312 304 300 301 301 300 301 303 305 305 304 305 305 305 315 322 322 321 320 320 318 318 316 317 317 318 318 318 319 320 320 319 318 317 318 318 317 318 318 319 319 320 322 322 323 323 324 322 323 323 324 323 322 319 316 316 317 319 319 319 323 325 328 330 333 334 335 334 334 329 325 322 320
308 306 304 303 302 304 307 316 320 323 324 311 310 311 313 322 320 319 319 320 318 317 316 316 315 315 316 316 318 319 318 317 316 315 314 314 313 313 313 313 315 318 320 322 322 323 323 325 325 324 322 324 324 321 318 316 315 318 320 319 321 323 326 330 331 333 332 332 333 332 333 329 326 322
316 314 317 318 315 315 313 316 316 319 320 320 318 321 322 322 321 320 320 319 318 317 315 314 314 315 316 318 318 316 316 314 314 314 314 311 311 312 312 313 314 317 319 321 322 323 324 325 326 325 321 323 324 322 320 319 316 317 319 320 320 317 321 324 327 329 332 333 333 336 335 332 328 325
324 323 316 316 325 323 323 323 324 324 324 323 322 323 321 320 321 321 321 316 318 318 316 315 316 316 317 315 313 313 311 310 311 314 313 311 310 311 312 311 313 315 317 319 322 324 327 327 326 325 325 325 322 322 321 319 317 317 318 320 320 322 324 323 323 326 330 334 332 332 335 332 329 328
327 326 325 327 325 325 322 322 322 321 321 321 322 322 320 319 318 319 318 317 316 318 317 314 314 312 313 312 312 310 309 311 311 313 313 313 311 312 312 310 313 314 314 314 319 321 324 326 327 326 327 326 323 321 318 317 317 319 317 318 319 319 321 322 324 325 327 329 330 333 332 334 333 332
329 327 325 324 323 323 323 322 321 320 319 320 319 319 317 317 317 317 317 316 316 316 315 313 311 311 310 310 309 308 308 310 310 311 311 311 312 310 309 309 311 314 315 314 317 318 321 323 324 325 328 326 323 321 320 317 318 318 318 318 318 317 319 321 322 323 324 327 329 329 329 333 334 334
324 323 322 322 322 322 322 321 320 319 318 316 316 316 316 316 316 316 315 315 314 314 313 312 310 309 309 308 307 307 308 308 308 308 310 311 312 309 309 308 309 313 315 315 316 318 319 320 320 319 320 319 317 318 322 324 319 317 318 318 318 318 319 320 321 321 323 328 330 329 329 333 333 336
323 323 322 322 321 321 320 319 319 317 316 317 316 316 315 315 316 314 314 313 312 312 311 310 309 309 308 307 307 307 307 306 307 308 308 308 308 309 308 308 310 311 313 314 315 317 317 318 320 319 315 313 312 310 312 322 323 321 317 315 317 318 318 320 320 321 322 324 328 330 328 331 333 335
322 323 321 320 321 320 319 319 318 317 316 316 316 316 315 314 314 315 317 316 313 311 310 310 308 308 308 307 307 306 307 307 307 307 307 308 308 308 307 307 309 311 311 313 316 317 319 318 320 320 316 311 308 308 310 316 317 319 322 317 316 317 317 318 318 317 319 321 322 328 330 329 331 337
320 320 319 318 319 319 319 317 317 317 317 317 316 316 315 314 314 315 316 314 311 310 310 309 308 307 307 307 306 306 307 307 307 307 307 307 307 307 306 306 307 308 309 313 315 316 318 318 318 319 317 311 308 308 308 313 315 317 316 319 316 316 317 316 315 315 316 319 321 323 329 331 333 338
320 320 320 318 318 319 318 317 317 316 317 316 316 315 315 314 313 313 311 311 309 309 308 308 307 307 308 307 307 307 306 306 306 306 307 307 306 306 306 307 306 307 309 313 315 316 316 316 317 318 318 314 311 311 312 312 312 317 318 312 315 316 315 315 314 315 315 315 317 320 325 336 337 326
318 318 319 319 319 319 318 318 317 316 315 315 315 314 314 314 313 311 311 309 309 310 309 306 306 306 308 308 307 307 306 307 306 306 306 306 306 307 306 307 306 307 310 312 313 314 314 315 316 318 320 319 319 321 318 318 318 320 319 318 309 311 314 315 314 314 314 314 315 316 321 331 332 334
319 319 319 319 318 319 318 317 317 316 316 315 316 312 312 313 312 310 309 309 308 306 303 303 306 309 308 307 307 306 305 305 306 306 306 306 306 306 306 306 306 307 309 311 312 313 313 315 319 316 322 323 323 321 318 313 310 312 314 316 311 311 310 312 316 315 313 314 314 315 317 323 329 329
319 319 318 318 318 317 316 315 315 315 315 314 314 313 315 312 311 310 308 309 306 305 305 307 309 309 307 307 306 306 305 304 305 305 305 305 306 306 306 307 305 307 309 310 311 312 315 320 321 321 321 321 318 313 310 310 309 311 313 315 318 313 313 312 311 312 316 314 312 311 312 315 322 327
318 318 317 317 317 317 316 315 316 314 313 314 313 313 312 311 309 307 307 308 309 309 308 307 308 306 306 307 306 306 305 304 305 305 305 306 306 305 305 305 306 308 310 312 313 314 316 318 320 319 319 318 317 316 311 311 312 312 312 313 314 316 317 315 314 313 313 313 311 311 312 311 309 314
318 317 317 317 316 317 316 316 314 313 313 313 312 311 310 308 308 306 307 307 306 305 307 307 306 306 306 306 306 305 305 305 305 306 305 306 306 306 306 306 307 308 309 312 312 313 315 316 318 318 316 315 316 315 312 312 311 312 312 312 313 313 313 316 318 315 315 315 312 310 311 311 311 310
318 317 317 317 316 315 315 315 315 314 312 312 311 309 307 306 305 304 305 306 306 306 307 306 306 306 306 305 305 304 305 303 304 305 306 306 306 306 306 306 306 307 309 311 310 311 314 315 316 316 315 315 315 314 314 314 313 312 311 310 310 311 313 313 312 313 313 313 311 310 310 311 312 311
Wind_Speed
5 5 6 5 3 3 4 4 4 4 4 4 5 4 5 5 6 7 7 6 6 7 8 7 1 1 3 3 3 5 6 8 9 8 8 9 8 8 12 15 14 14 13 13 13 12 11 12 13 14 14 14 13 13 13 13 14 15 15 16 16 16 16 15 16 15 15 14 14 15 16 17 18 19
4 5 5 4 5 4 4 4 4 3 3 4 4 4 5 4 6 6 7 7 5 6 6 7 7 4 4 4 6 6 6 5 6 7 8 9 9 7 1 9 12 12 13 13 13 13 13 13 14 14 14 14 13 14 14 15 15 15 16 17 17 17 17 16 16 16 16 16 15 15 16 17 18 18
5 5 6 4 4 5 5 4 4 4 5 5 4 4 4 5 6 6 6 8 6 5 7 7 8 8 7 7 7 6 5 6 7 8 8 9 10 9 10 8 11 14 15 15 16 16 15 15 15 15 14 14 13 14 15 15 16 16 17 17 18 18 18 17 16 17 17 17 17 16 16 16 17 19
5 6 6 5 5 5 5 4 4 5 5 5 4 4 4 5 5 5 5 6 10 8 8 8 8 10 8 7 7 7 6 6 8 8 8 8 9 9 9 12 14 16 17 17 17 17 17 16 16 16 15 15 14 16 16 16 16 16 17 17 18 18 19 18 17 18 18 18 18 18 18 18 18 19
6 6 6 6 6 6 5 4 5 6 6 5 4 3 4 5 4 5 5 7 8 9 8 8 9 9 9 8 7 9 8 8 7 8 8 8 8 8 8 9 11 11 14 16 18 17 16 16 16 16 16 16 15 16 17 17 17 18 18 18 18 18 18 18 18 18 18 18 19 19 19 20 19 19
6 6 7 7 7 6 6 6 6 6 6 5 4 4 4 5 5 4 6 7 8 10 8 9 9 9 9 9 6 8 8 8 8 9 8 7 8 8 8 8 8 9 10 10 13 16 17 18 18 18 18 18 18 18 18 18 18 19 19 19 18 18 19 19 20 18 18 18 20 20 20 20 20 20
7 8 7 8 7 6 6 6 6 6 6 5 5 5 5 5 6 6 6 7 9 10 9 8 9 8 8 9 9 8 8 8 8 9 9 9 8 8 8 8 8 9 8 11 13 15 16 17 19 20 20 19 18 19 19 19 19 20 19 19 20 20 20 20 20 20 20 19 19 20 21 21 21 21
8 8 8 7 7 7 7 6 6 5 5 5 5 6 5 5 6 6 7 7 8 9 10 9 9 8 8 8 9 8 8 9 8 8 8 9 10 10 9 9 10 9 9 10 10 14 17 18 20 21 20 20 19 19 19 20 21 20 20 20 21 21 22 21 21 21 22 22 21 20 20 21 22 21
8 8 8 7 7 7 8 7 6 6 7 6 6 6 6 6 6 6 7 7 8 9 11 10 9 9 9 8 9 9 9 9 9 9 9 9 9 9 10 10 10 12 14 15 16 16 16 19 20 20 21 21 20 20 21 22 21 21 21 21 21 22 22 21 21 22 22 22 22 22 21 21 21 22
9 8 8 8 8 8 8 7 7 6 7 6 6 7 7 6 6 7 7 7 8 9 9 10 11 8 9 7 8 9 9 10 10 9 9 9 9 9 10 10 9 9 9 8 8 10 12 17 20 21 20 20 21 22 22 22 21 21 22 23 23 22 21 22 23 22 22 22 23 23 22 21 22 23
9 9 8 8 8 8 8 9 8 7 7 6 7 7 7 7 6 7 8 8 9 9 9 9 9 10 9 9 9 8 9 10 10 11 10 9 8 8 9 10 9 9 10 11 12 13 13 16 15 16 19 21 22 22 21 21 22 22 23 23 22 21 22 23 24 23 23 22 23 22 22 22 22 23
9 9 9 10 9 8 9 9 8 7 7 6 8 6 6 6 7 8 7 8 9 9 9 10 10 9 9 9 9 9 9 9 9 8 9 10 10 10 9 10 10 9 10 11 11 10 11 13 17 21 21 19 19 20 20 22 23 25 24 23 22 22 23 23 23 23 23 23 23 23 23 23 23 23
9 8 8 8 10 8 7 9 8 7 2 3 5 6 8 8 8 8 7 8 8 9 9 10 9 10 10 9 9 8 8 9 10 10 10 11 11 10 10 9 9 10 11 10 11 10 10 12 12 12 11 12 14 14 17 16 22 24 24 23 23 24 23 21 21 23 23 24 24 24 24 23 24 24
9 9 9 9 8 9 5 3 4 2 2 4 6 7 8 8 8 7 8 8 9 9 9 10 10 11 11 10 10 10 10 10 11 11 10 11 10 10 11 10 8 8 10 11 10 10 9 11 12 11 12 12 11 12 14 14 15 15 15 18 21 22 21 22 22 23 24 24 24 25 25 24 24 24
8 8 9 8 6 5 5 2 3 2 4 7 10 12 12 9 7 8 9 9 9 10 10 10 10 11 12 11 10 10 11 11 11 11 9 9 10 10 10 11 8 7 9 8 10 11 10 11 13 12 12 13 15 15 15 16 17 18 19 20 18 17 19 21 22 22 23 24 24 24 25 24 24 24
7 7 7 8 3 3 3 2 3 4 6 10 13 12 12 12 11 9 8 8 9 9 10 11 10 10 10 9 9 10 10 10 10 10 10 9 10 11 11 10 11 7 8 11 12 13 10 11 13 13 12 13 14 15 17 19 20 21 21 21 20 21 21 22 21 21 22 22 23 24 25 25 25 25
7 2 3 2 2 2 6 4 6 6 7 9 9 11 14 11 11 12 13 14 12 9 11 12 12 10 10 11 9 8 9 9 11 10 9 9 10 10 12 11 11 10 9 12 13 14 12 11 12 13 11 14 13 14 16 16 16 17 18 18 19 20 20 20 20 21 22 23 25 26 26 26 26 25
4 8 1 3 2 2 3 5 7 8 8 6 4 4 4 6 10 13 17 18 19 15 10 10 11 10 8 8 8 9 9 10 10 10 12 12 13 12 13 14 14 14 11 14 14 14 13 11 12 14 13 13 12 11 14 17 18 19 20 22 21 19 19 20 21 22 24 26 26 26 26 26 27 26
6 8 4 6 6 5 5 7 6 7 7 4 3 3 5 8 12 13 11 9 9 9 9 10 12 12 12 11 9 7 8 10 10 10 12 12 12 13 14 14 14 14 12 14 13 14 13 12 13 13 14 13 13 13 15 19 20 22 21 18 17 17 20 22 24 26 27 27 27 27 26 26 27 27
5 7 9 8 9 7 8 6 7 8 7 6 5 5 8 11 12 11 9 6 7 10 10 10 10 9 8 7 8 8 8 8 9 10 11 11 12 13 13 15 14 14 11 11 11 13 14 11 14 14 13 13 14 14 15 19 20 19 18 19 20 21 22 24 26 28 28 28 28 27 26 26 27 26
4 5 6 7 7 7 7 8 9 7 5 6 7 8 8 8 10 9 9 8 14 13 11 10 10 10 10 12 11 11 12 10 9 8 9 10 12 14 14 14 15 14 12 11 12 13 13 11 13 15 13 13 15 16 17 16 18 17 16 17 19 22 25 27 28 29 28 29 29 28 27 27 26 27
6 6 10 8 6 5 5 6 7 6 4 4 5 6 8 9 9 9 9 9 5 10 10 11 11 11 11 11 12 13 14 16 12 8 10 12 11 12 13 13 13 15 13 12 12 12 12 13 12 14 13 13 13 15 15 14 14 16 17 20 21 23 26 28 28 27 28 29 29 29 28 26 25 19
5 5 6 6 6 6 4 9 8 7 5 5 5 6 7 8 9 9 10 10 10 8 7 6 6 7 9 9 9 11 19 22 17 12 13 12 11 12 11 14 15 15 12 10 9 11 12 12 11 12 13 14 13 11 12 12 12 12 12 13 16 21 25 26 26 27 28 28 29 29 27 25 23 14
5 4 4 7 11 9 10 11 9 7 6 4 4 5 6 8 9 7 6 7 8 8 8 9 9 10 11 12 12 12 11 9 12 13 12 11 11 12 14 14 14 14 12 9 11 12 13 13 14 10 12 14 15 11 11 12 10 12 14 15 16 21 23 23 23 28 30 30 29 28 26 25 23 13
5 5 5 5 9 12 10 10 9 6 5 2 3 5 5 3 3 6 8 8 9 8 8 9 10 10 10 10 11 11 10 12 11 10 11 11 11 12 13 13 14 15 15 13 12 11 12 12 14 13 13 13 15 17 16 15 14 14 14 14 15 18 18 18 17 17 17 20 24 26 25 24 26 19
5 5 4 5 7 12 11 9 8 6 5 4 3 0 5 1 4 4 7 7 7 7 8 9 9 10 11 11 11 12 12 11 10 10 10 10 12 13 13 13 14 14 15 12 13 12 13 13 13 13 14 15 14 15 16 14 14 11 14 13 16 18 17 17 16 15 13 11 9 14 17 23 24 27
5 5 5 5 12 11 11 9 8 7 4 4 3 1 3 2 4 6 5 6 6 7 8 8 9 9 11 12 11 11 10 9 9 9 10 12 14 13 13 13 13 14 14 14 14 14 12 13 12 13 14 12 15 14 16 14 17 14 15 17 16 17 16 15 14 14 13 12 13 16 20 22 24 26
7 7 5 7 12 11 10 9 6 4 3 1 6 3 1 3 4 5 5 6 7 8 10 10 10 11 11 12 11 9 9 9 9 10 11 12 13 12 11 13 14 15 15 15 15 14 12 12 11 12 15 14 13 16 17 16 14 17 18 17 16 15 14 13 13 12 13 12 14 9 8 9 11 14
4 9 14 14 11 9 7 7 3 3 5 7 8 5 3 5 5 5 5 6 8 10 10 10 10 11 10 9 9 8 9 10 10 11 10 11 11 12 12 12 12 13 11 11 13 13 12 10 11 11 12 10 9 13 15 17 17 16 16 17 14 13 15 14 12 11 10 10 11 11 9 11 12 14
13 14 14 14 12 9 6 4 4 4 4 9 9 10 8 6 6 6 7 8 8 9 10 10 11 10 9 9 8 10 10 10 10 9 10 10 10 10 10 11 11 12 12 12 13 12 12 11 9 10 12 10 10 13 15 16 18 16 17 16 14 14 11 11 12 12 11 12 12 12 10 11 13 14
7 9 9 7 7 7 7 5 4 5 7 7 7 7 7 7 7 6 8 6 6 7 10 11 9 9 9 9 10 10 9 9 9 8 9 10 10 10 10 11 12 12 11 12 12 13 13 11 8 9 11 10 9 12 15 14 16 17 15 13 13 13 13 14 13 12 12 12 11 10 9 10 12 14
9 8 9 10 7 7 6 6 6 7 7 7 6 6 6 6 7 8 6 2 6 7 8 8 9 10 9 10 10 9 9 9 9 9 9 9 10 10 11 11 11 11 12 11 11 12 12 8 6 9 9 9 9 12 14 14 15 15 13 13 13 12 12 14 14 13 14 14 11 11 10 10 13 12
9 8 8 5 6 6 5 5 6 6 5 6 7 7 7 6 6 7 7 8 6 7 8 8 8 9 10 10 9 9 9 9 9 8 9 9 10 11 10 11 12 12 12 13 12 11 10 9 9 10 9 9 11 13 12 12 14 12 14 13 13 13 12 11 11 13 14 14 12 11 9 11 13 13
7 5 4 5 5 4 4 5 6 6 6 6 7 7 7 6 7 8 7 7 7 8 8 7 8 9 10 9 9 9 9 9 9 9 9 9 9 10 10 11 11 11 11 12 13 12 11 9 10 10 8 9 9 9 10 11 13 12 13 14 12 14 13 14 13 14 13 13 13 10 10 9 12 13
4 4 5 5 5 6 6 6 5 6 7 7 6 6 5 6 7 7 8 8 7 6 4 7 9 10 9 9 9 9 9 10 10 10 9 9 9 10 10 11 11 11 11 12 13 12 11 11 11 11 10 10 11 9 7 8 10 12 12 12 13 12 13 14 15 15 14 13 10 9 8 8 9 9
4 4 4 5 6 6 6 5 7 7 7 6 6 6 7 6 7 6 7 6 5 4 7 9 10 9 8 8 9 9 9 9 10 10 9 9 10 10 10 10 11 11 12 12 12 12 11 10 8 8 11 11 12 13 13 5 7 7 11 14 13 13 14 14 15 13 12 13 13 11 9 10 11 10
3 4 5 6 5 5 6 6 7 6 5 6 7 7 7 8 8 8 4 6 6 6 8 8 8 8 8 8 8 8 9 9 10 10 10 9 9 10 10 10 11 11 12 12 12 12 10 10 8 7 9 12 13 13 14 12 13 8 7 12 12 11 15 15 14 14 12 11 12 11 10 9 11 10
4 5 6 7 7 6 6 6 5 4 4 4 6 6 7 7 9 8 7 7 6 7 7 7 7 7 8 7 8 8 9 9 9 10 10 10 9 9 10 11 11 11 12 12 12 11 9 9 7 5 6 10 13 13 15 13 12 11 10 12 13 13 13 13 14 14 13 12 11 12 11 8 10 8
5 5 7 6 5 6 5 3 3 4 6 6 6 6 6 9 10 8 7 7 7 7 7 7 7 7 7 8 8 8 9 9 9 9 10 10 9 10 10 11 11 12 12 12 11 11 11 10 9 7 4 8 10 12 13 14 14 13 13 14 10 10 11 11 12 12 13 13 14 13 11 8 4 8
4 4 5 5 4 4 3 2 3 5 6 7 6 6 9 9 6 5 7 7 7 5 5 7 8 8 7 7 7 8 8 9 10 9 10 10 10 10 10 10 11 12 11 12 12 11 11 11 10 8 6 6 8 10 10 11 10 10 9 11 16 12 12 11 13 13 12 13 12 11 11 8 4 1
4 4 4 3 3 4 4 3 5 6 7 7 6 4 6 8 7 7 8 6 6 6 7 7 7 7 7 7 8 8 9 9 9 9 10 10 10 10 11 12 11 10 11 12 12 12 11 9 9 10 8 6 8 8 8 9 12 12 13 12 14 17 18 15 11 11 11 13 12 11 10 10 5 1
4 4 3 3 3 3 4 5 6 6 7 8 8 9 10 10 6 7 7 7 7 7 7 7 7 6 7 7 7 7 8 9 9 9 10 10 10 10 10 10 10 10 11 12 12 12 10 8 7 5 6 7 9 10 9 11 13 12 12 11 11 13 16 17 16 14 9 7 11 12 10 9 10 7
4 4 4 4 4 4 4 4 5 6 6 6 7 6 6 6 7 6 6 6 6 6 6 6 5 6 6 7 7 7 8 9 9 10 10 10 10 10 10 10 10 11 11 11 11 11 10 10 6 5 6 7 8 8 10 12 11 11 12 12 13 13 13 15 15 15 14 8 9 10 8 6 8 6
5 5 4 4 4 3 3 5 5 5 6 7 7 7 6 6 6 6 6 6 5 5 5 5 6 6 6 7 7 7 8 8 9 10 10 10 10 10 10 10 10 11 11 10 11 11 11 10 8 7 7 8 8 10 11 11 12 12 11 11 11 13 14 13 12 11 10 13 20 22 20 13 9 10
4 5 5 4 4 5 5 6 6 6 6 6 6 6 6 6 6 6 6 5 5 5 5 5 6 6 6 6 7 8 8 9 9 9 9 9 9 9 10 10 10 11 10 10 11 12 11 11 10 9 9 8 9 10 12 11 12 11 12 13 13 13 12 13 14 14 12 12 17 23 22 20 17 20
Wind_Direction
275 247 224 233 253 273 272 275 275 279 283 277 279 278 280 286 285 294 299 296 302 315 319 308 310 357 359 286 230 223 251 263 250 262 272 278 278 263 209 212 213 216 220 229 234 242 242 241 246 252 255 256 258 262 267 270 275 280 280 281 281 281 281 281 280 278 276 274 271 271 273 272 272 272
257 267 282 280 263 257 255 259 278 287 283 283 282 288 284 266 282 294 300 303 297 304 309 301 307 323 313 292 283 277 268 277 259 271 270 269 272 285 236 205 220 224 230 236 239 244 248 247 245 248 253 253 251 253 257 261 266 269 273 274 277 277 276 274 272 272 272 270 268 268 266 268 270 269
240 259 274 272 257 260 269 281 283 282 279 268 271 288 296 299 295 302 305 300 301 314 304 307 308 305 300 289 282 275 276 265 265 271 273 272 273 281 277 244 217 224 230 235 244 248 246 242 242 246 248 250 249 248 252 257 260 263 265 270 272 272 272 271 270 269 268 267 267 265 263 263 264 267
233 242 246 244 253 258 259 272 282 278 263 262 271 285 301 296 286 291 292 288 295 303 302 306 299 294 300 308 289 288 280 269 241 261 261 264 264 265 263 253 235 232 233 237 240 243 243 239 238 240 243 246 244 249 252 255 258 261 264 265 268 270 271 271 270 268 265 264 262 261 261 260 260 262
262 250 247 251 259 268 270 263 266 270 267 254 247 249 259 274 279 280 283 285 287 291 300 302 302 305 305 291 287 289 280 277 275 260 260 262 265 265 265 270 259 238 232 235 238 239 239 240 240 239 240 243 244 247 251 253 257 260 264 265 264 266 267 268 267 265 263 262 260 259 259 259 259 257
243 241 241 245 249 251 254 249 250 248 256 266 282 276 268 272 274 255 267 271 276 283 291 292 297 298 299 294 289 285 287 283 281 279 276 270 267 266 269 273 276 265 246 227 234 234 233 234 237 239 240 241 246 251 253 256 258 259 261 263 263 261 260 261 262 262 260 258 259 259 258 257 256 256
232 236 240 246 248 243 246 246 245 248 260 271 271 272 269 267 272 274 267 273 279 286 287 285 288 292 299 296 299 293 288 287 281 279 280 276 272 270 270 273 275 274 268 247 227 227 229 232 233 236 239 242 246 248 249 251 255 257 256 256 258 260 260 259 259 260 261 260 257 257 257 258 257 255
223 232 240 246 255 262 258 251 245 245 253 264 263 268 271 265 268 275 277 276 284 286 289 287 290 293 293 294 297 297 289 284 285 284 284 277 276 279 281 280 277 268 258 258 231 223 228 229 231 234 237 241 243 245 246 248 248 248 249 249 252 255 258 257 258 258 259 261 261 258 256 255 257 258
234 239 244 248 247 246 252 254 253 253 261 264 269 273 268 265 274 278 285 290 287 287 287 288 285 290 290 291 291 292 296 295 286 283 276 277 278 279 281 281 276 274 262 257 261 255 241 237 238 237 237 237 239 242 245 245 244 243 244 246 246 248 251 253 254 255 255 257 259 259 258 256 254 256
230 234 241 250 255 257 255 252 250 256 261 262 265 268 271 279 284 281 281 286 290 289 285 289 296 295 297 301 294 294 293 294 295 290 285 277 280 280 279 280 279 281 283 283 259 245 244 245 244 244 242 240 239 240 243 244 243 243 243 243 244 244 246 250 252 252 253 254 256 258 258 256 254 255
230 232 236 243 249 254 254 255 254 258 261 263 267 272 280 280 281 288 291 291 291 288 287 286 287 293 291 290 293 295 296 291 289 296 295 291 292 287 289 284 283 286 286 280 268 258 262 276 278 257 236 232 236 241 244 244 244 245 245 245 244 243 243 246 249 251 252 254 255 255 256 256 255 253
236 236 239 243 240 237 243 248 257 255 258 260 267 268 272 278 280 281 282 284 289 291 291 287 291 289 292 289 284 291 288 288 286 283 291 293 297 296 288 286 291 290 284 280 280 274 262 255 251 249 249 253 253 246 242 241 244 246 248 248 245 243 242 242 244 248 250 251 253 254 254 254 254 252
232 241 253 261 257 248 230 246 253 257 293 285 288 290 285 282 282 284 281 280 285 289 288 288 288 294 296 295 294 292 293 294 299 302 299 296 293 291 291 289 284 282 282 278 280 281 284 281 279 282 284 276 264 246 236 240 241 243 245 245 242 243 244 242 242 244 246 247 248 250 250 250 251 251
240 240 240 244 249 260 278 147 153 197 246 260 273 279 281 282 279 275 281 283 286 288 288 289 295 295 292 295 298 298 294 294 292 293 300 297 297 296 291 286 279 285 286 288 287 286 280 278 281 283 282 281 277 282 280 281 281 274 253 241 244 247 244 242 240 240 242 244 244 245 246 245 245 247
244 246 242 247 244 72 64 321 312 273 256 259 259 258 257 261 269 271 271 274 283 287 290 292 292 292 295 294 297 297 300 301 305 307 306 298 298 298 299 295 291 273 287 287 290 284 281 285 286 285 283 282 279 280 277 276 270 263 261 262 255 240 237 240 241 240 241 243 243 242 243 243 242 242
238 243 239 244 174 152 152 204 276 276 266 259 256 263 260 253 248 245 249 266 274 276 282 287 289 290 288 295 296 296 304 312 312 305 300 295 296 295 291 289 287 298 300 298 297 288 287 284 282 282 279 278 279 274 267 261 256 257 259 255 254 255 255 253 251 250 249 247 245 243 244 245 243 240
234 243 38 44 110 134 155 206 240 263 264 247 232 246 260 262 254 245 240 239 248 263 265 280 283 282 292 293 294 309 318 318 303 304 298 299 297 294 290 286 290 295 309 298 286 283 282 284 281 278 268 274 274 273 267 264 259 259 259 258 257 256 256 257 257 256 255 255 255 253 247 245 243 240
221 108 152 313 278 220 219 253 257 259 252 239 254 259 256 260 250 240 240 241 240 241 252 263 277 279 279 280 292 302 309 309 304 304 298 299 295 292 290 296 293 290 288 282 283 277 278 276 273 275 283 282 278 276 278 277 276 274 271 267 261 254 255 260 263 263 262 259 256 253 249 245 242 239
223 134 166 205 235 239 243 245 234 251 250 195 219 252 286 285 277 266 260 240 224 224 227 239 246 267 275 276 287 302 310 306 301 297 296 293 288 289 290 286 282 281 271 265 262 269 278 283 285 282 285 286 286 288 287 282 278 273 268 262 262 270 272 272 271 270 268 264 258 254 250 245 242 237
213 163 178 196 218 222 232 214 228 248 249 222 201 239 249 250 257 269 273 257 269 271 270 273 283 287 302 328 300 294 294 294 286 286 285 287 291 292 288 287 290 286 289 286 285 284 285 288 287 292 292 290 288 288 287 284 277 272 272 277 280 278 275 271 270 270 268 266 262 256 250 244 240 235
175 189 188 191 198 220 232 224 218 203 209 240 250 254 255 262 269 268 279 218 217 223 218 242 258 263 260 262 268 270 262 253 267 281 284 278 287 290 290 291 292 290 291 285 286 293 295 292 292 294 294 291 288 286 281 280 276 275 279 279 275 272 270 268 265 264 264 263 261 256 249 241 237 232
177 191 195 186 204 205 234 170 177 164 184 227 244 256 265 270 270 273 278 287 257 202 217 230 241 248 254 256 252 251 253 253 245 237 248 270 288 284 286 287 286 291 291 290 290 288 288 299 295 292 293 289 280 280 281 283 284 282 274 268 268 268 268 267 266 264 262 259 257 254 247 240 233 230
189 181 173 190 208 227 160 154 160 175 198 222 245 262 269 269 271 275 292 296 301 306 290 258 258 264 245 245 246 241 235 241 238 228 237 250 265 276 274 284 294 293 287 291 309 297 295 297 300 304 299 290 285 279 285 284 281 276 277 280 280 276 275 274 269 263 260 256 253 250 243 235 227 223
150 157 196 197 216 187 156 160 163 178 205 221 239 259 265 269 279 329 320 301 304 301 295 290 289 286 285 283 286 288 281 248 221 220 227 238 253 268 284 291 288 289 292 295 312 307 305 300 294 292 285 291 294 296 286 281 282 286 288 287 285 277 273 268 263 259 255 252 247 244 238 229 217 217
173 190 210 226 185 163 154 156 165 175 186 213 255 247 270 336 352 316 295 297 305 296 293 285 277 278 289 298 294 296 298 288 302 320 303 297 292 290 293 298 297 292 292 298 319 299 296 297 291 290 282 279 285 293 295 294 290 288 286 284 281 281 285 282 278 273 262 241 239 238 233 225 212 207
197 205 182 207 146 151 155 154 162 167 167 185 235 241 76 59 342 322 291 288 286 287 294 293 293 293 293 298 300 287 289 310 316 300 299 304 309 303 298 294 293 291 289 294 299 292 292 286 282 287 286 290 288 290 295 292 292 292 294 288 289 287 283 279 274 271 269 271 254 226 226 220 210 205
191 212 215 127 141 145 144 150 158 164 153 175 240 257 20 5 317 284 275 287 293 288 287 289 289 288 287 290 297 310 314 299 297 304 304 302 297 293 289 282 278 279 284 289 288 285 279 278 280 284 288 287 291 295 296 300 302 301 297 297 296 291 285 279 273 273 269 264 264 228 212 211 206 203
193 201 161 133 133 130 139 146 145 139 166 279 38 357 327 284 278 281 285 276 272 270 268 277 292 298 301 301 298 296 302 304 307 306 298 289 285 283 286 286 283 281 284 284 285 282 277 280 283 283 286 289 295 298 300 295 289 299 303 302 300 301 298 285 273 264 264 261 271 250 190 200 201 201
85 100 110 117 117 123 124 123 143 191 215 231 250 260 265 264 273 270 277 282 270 275 287 294 293 292 300 303 298 298 305 310 304 291 286 286 286 286 285 284 283 283 284 288 289 288 286 279 276 279 284 287 287 291 297 298 301 301 302 305 304 309 308 298 286 275 270 265 258 251 204 189 186 192
127 118 117 117 121 131 138 177 192 230 194 194 213 233 235 256 261 256 262 264 274 291 294 295 299 304 297 295 309 315 304 292 290 292 289 291 294 298 300 300 296 294 290 287 286 287 289 281 277 291 294 290 287 297 298 299 299 297 302 301 298 296 287 296 294 288 278 275 267 255 227 192 190 179
118 129 129 128 122 105 158 215 322 329 131 174 199 222 220 238 259 246 235 262 299 306 303 297 295 293 300 305 301 291 291 288 286 291 296 298 300 304 305 301 296 295 294 290 287 292 293 296 296 292 295 294 290 293 297 295 294 300 300 299 301 299 306 303 298 297 290 274 265 256 239 197 192 185
145 138 126 133 159 152 173 182 205 216 213 226 224 230 256 245 240 270 303 181 248 255 250 270 290 295 296 295 296 299 296 296 298 300 299 300 301 300 301 297 296 298 299 298 298 302 301 304 302 289 289 301 300 299 298 293 296 301 301 302 303 299 299 303 304 302 300 298 283 257 239 202 191 185
150 156 165 176 173 194 216 250 268 277 265 232 233 249 239 247 254 243 273 297 276 253 271 299 314 301 295 294 297 296 295 296 299 299 298 299 297 294 292 292 295 299 304 307 308 309 314 311 297 297 296 298 292 292 295 295 299 304 308 306 310 308 309 304 302 300 303 297 285 263 236 221 211 204
178 190 211 223 226 247 253 254 264 265 258 266 266 239 237 260 273 281 268 248 267 281 292 320 298 294 298 293 295 298 299 300 298 303 300 293 290 292 294 296 299 303 305 305 308 313 317 314 305 298 292 293 284 274 277 285 293 307 312 310 306 317 316 317 311 308 303 294 290 273 238 212 209 201
228 239 248 255 263 257 256 256 253 261 271 272 276 277 286 281 277 275 284 297 305 334 347 297 295 293 290 295 296 296 299 304 305 301 295 295 296 297 302 303 304 305 306 306 308 312 316 320 321 315 310 312 312 300 267 249 291 302 306 314 324 320 319 322 319 317 312 297 294 267 247 214 216 208
230 248 256 256 262 266 267 270 269 268 270 278 279 288 285 276 279 297 297 42 15 332 304 299 291 292 293 290 292 298 303 301 298 301 306 305 302 305 306 305 307 308 310 308 311 313 315 313 312 319 321 323 324 318 326 290 242 273 305 319 324 325 322 320 324 321 320 320 313 288 247 228 208 212
246 247 259 267 269 256 249 254 261 268 280 282 282 278 280 283 287 276 349 52 336 318 290 287 285 281 283 288 298 302 301 303 305 307 303 305 308 308 310 311 311 310 309 312 309 307 316 317 317 319 323 324 324 319 311 320 320 294 301 322 322 328 328 326 329 328 327 319 310 308 283 252 240 214
238 247 252 263 274 280 284 279 286 291 297 298 283 296 291 295 283 311 342 300 284 274 271 275 292 294 292 306 309 305 302 302 304 305 309 309 312 316 316 313 313 316 314 307 309 317 325 319 321 319 325 322 320 316 317 323 319 324 333 328 328 327 328 331 332 333 328 322 314 313 306 276 248 226
254 260 266 274 272 260 273 313 338 321 304 285 275 289 314 289 301 344 308 294 296 301 297 291 284 295 310 305 296 297 302 307 308 309 310 314 317 317 314 314 316 314 308 307 319 324 328 330 333 333 326 321 318 315 314 314 316 310 317 321 327 320 329 327 323 327 334 331 322 314 299 267 270 3
235 256 275 280 275 277 274 304 295 275 279 281 281 258 264 302 337 311 301 295 294 304 305 297 293 292 289 292 300 303 304 307 309 310 314 317 318 314 314 320 312 307 308 317 325 328 329 334 336 338 320 312 293 294 295 290 282 290 305 322 337 337 325 324 331 331 334 335 322 317 311 310 276 138
238 253 266 296 294 275 275 276 256 255 257 265 252 234 218 222 257 288 285 311 329 308 290 288 289 291 293 300 302 307 308 310 309 310 318 317 313 315 314 309 306 316 319 316 323 329 330 327 321 325 323 301 301 303 301 323 332 334 334 332 334 336 332 331 327 331 326 335 341 334 329 321 292 270
248 250 253 266 260 259 256 260 273 277 276 278 299 325 341 353 299 236 263 272 264 259 260 266 278 288 298 302 306 309 310 310 311 319 321 317 316 316 316 317 319 323 320 320 324 328 320 317 324 337 320 319 332 340 336 335 334 332 331 326 328 336 337 331 329 337 330 344 355 359 345 334 334 294
229 245 237 231 232 238 252 273 274 293 311 309 283 276 287 297 303 269 249 248 239 248 268 281 301 305 303 306 309 312 308 309 320 323 315 314 318 318 320 321 322 321 321 317 322 323 320 324 343 335 323 331 344 338 338 335 331 331 331 337 340 337 336 336 336 336 334 328 3 6 356 331 330 308
210 231 238 228 227 209 241 259 265 265 269 283 291 292 271 264 262 261 262 271 274 274 292 307 299 296 303 310 311 310 307 317 320 308 312 316 317 319 320 320 322 325 322 324 327 327 326 330 340 343 340 344 348 345 342 336 338 339 338 336 335 342 343 342 339 336 342 356 1 355 347 338 314 276
219 224 232 222 226 250 248 243 251 269 300 294 300 289 275 260 255 270 277 279 281 284 286 290 296 302 308 313 316 310 312 308 301 311 315 317 321 321 323 324 326 328 324 334 332 329 332 338 353 2 346 343 351 349 344 343 338 336 342 344 344 345 344 345 347 346 351 350 353 350 343 341 338 14